Terug naar catalogus

CZ-4B R/B

ActiefSSO
NORAD 32063·ROCKET BODY·🇨🇳 China

Gelanceerd Sep 19, 2007 vanaf Taiyuan Satellite Launch Center

Loading…

Volgende Passages (komende 24 uur)

TLE

VersSource: Space-Track

Epoch: Sep 14, 2026, 07:51 UTC

1 32063U 07042B   26257.32732994  .00000135  00000-0  43757-4 0  9997
2 32063  98.2180 199.9982 0053844 206.3733 313.5768 14.52488792  4972

Volg CZ-4B R/B in realtime met AllMySat

Download on the App Store